Flag for French Polynesia Weather past 2 weeks in Papeete, Tahiti, French Polynesia

Now
88 °F

Partly sunny.


Feels Like: 93 °F
Forecast: 79 / 87 °F
Wind: 3 mph from Southwest

Location: Tahiti-Faaa

Current Time: Jan 30, 2015 at 10:22:54 AM

Latest Report: Jan 30, 2015 at 10:00 AM


Visibility: N/A

Pressure: 29.89 "Hg

Humidity: 55%

Dew point: 70 °F

Location of PapeeteLocation

Historic Weather in Papeete — Graph

°F

Papeete temperature yesterday

Maximum temperature yesterday: 86 °F (at 11:00 AM)
Minimum temperature yesterday: 73 °F (at 4:00 AM)
Average temperature yesterday: 82 °F

Past Weeks' High & Low Weather Summary

 TemperatureHumidityPressure
High90 °F (Jan 16, 2:00 PM)94% (Jan 16, 9:30 PM)29.92 "Hg (Jan 16, 9:30 PM)
Low73 °F (Jan 29, 4:00 AM)52% (Jan 30, 9:00 AM)29.59 "Hg (Jan 21, 2:30 PM)
Average81 °F79%29.77 "Hg
* Reported Jan 15 9:00 AM — Jan 30 9:00 AM, Papeete, Weather by CustomWeather, © 2014

Note: Actual official high and low records may vary slightly from our data, if they occured in-between our weather recording intervals... More about our weather records

Advertising

Papeete weather history for previous 24 hours

 ConditionsComfort  
Time TempWeatherWind HumidityBarometerVisibility
9:00 AM
Jan 30
86 °FOvercast.3 mph52%29.92 "HgN/A
8:30 AM84 °FOvercast.3 mph58%29.92 "HgN/A
8:00 AM82 °FPartly sunny.No wind62%29.89 "HgN/A
7:30 AM81 °FPartly sunny.2 mph66%29.89 "HgN/A
7:00 AM79 °FPartly sunny.2 mph70%29.89 "HgN/A
6:30 AM81 °FPartly sunny.5 mph66%29.86 "HgN/A
6:00 AM79 °FPartly sunny.3 mph65%29.86 "HgN/A
5:30 AM79 °FWarm.5 mph65%29.86 "HgN/A
5:00 AM81 °FWarm.7 mph62%29.83 "HgN/A
4:30 AM79 °FWarm.7 mph65%29.83 "HgN/A
4:00 AM81 °FWarm.7 mph58%29.83 "HgN/A
3:30 AM81 °FWarm.7 mph62%29.83 "HgN/A
3:00 AM81 °FOvercast.8 mph62%29.83 "HgN/A
2:30 AM81 °FOvercast.7 mph62%29.83 "HgN/A
2:00 AM81 °FOvercast.7 mph62%29.83 "HgN/A
1:30 AM81 °FPassing clouds.8 mph58%29.83 "HgN/A
1:00 AM81 °FPassing clouds.6 mph62%29.86 "HgN/A
12:30 AM81 °FPassing clouds.5 mph66%29.86 "HgN/A
12:00 AM79 °FPassing clouds.3 mph74%29.89 "HgN/A
11:30 PM
Jan 29
79 °FPassing clouds.3 mph79%29.89 "HgN/A
11:00 PM81 °FPassing clouds.No wind74%29.89 "HgN/A
10:30 PM81 °FPassing clouds.2 mph74%29.89 "HgN/A
10:00 PM81 °FOvercast.3 mph74%29.89 "HgN/A
9:30 PM81 °FPassing clouds.2 mph74%29.89 "HgN/A
9:00 PM81 °FPartly cloudy.3 mph74%29.89 "HgN/A
8:30 PM81 °FOvercast.5 mph74%29.86 "HgN/A
8:00 PM81 °FOvercast.6 mph74%29.86 "HgN/A
7:30 PM81 °FPassing clouds.5 mph74%29.86 "HgN/A
7:00 PM81 °FPassing clouds.6 mph74%29.83 "HgN/A
6:30 PM82 °FMore clouds than sun.5 mph70%29.83 "HgN/A
6:00 PM82 °FBroken clouds.5 mph70%29.83 "HgN/A
5:30 PM84 °FBroken clouds.8 mph70%29.83 "HgN/A
5:00 PM84 °FBroken clouds.12 mph70%29.83 "HgN/A
4:30 PM84 °FBroken clouds.10 mph66%29.80 "HgN/A
4:00 PM84 °FBroken clouds.10 mph66%29.80 "HgN/A
3:30 PM84 °FBroken clouds.12 mph70%29.80 "HgN/A
3:00 PM86 °FBroken clouds.12 mph62%29.80 "HgN/A
2:30 PM86 °FBroken clouds.13 mph66%29.80 "HgN/A
2:17 PM86 °FBroken clouds.13 mph62%29.83 "HgN/A
1:30 PM86 °FBroken clouds.13 mph62%29.83 "HgN/A
1:00 PM86 °FBroken clouds.13 mph70%29.83 "HgN/A
12:30 PM86 °FBroken clouds.14 mph66%29.86 "HgN/A
12:00 PM86 °FBroken clouds.13 mph66%29.86 "HgN/A
11:30 AM86 °FBroken clouds.12 mph70%29.86 "HgN/A
11:00 AM86 °FBroken clouds.13 mph66%29.86 "HgN/A
10:30 AM84 °FBroken clouds.13 mph70%29.86 "HgN/A
10:00 AM84 °FBroken clouds.12 mph70%29.89 "HgN/A
Weather by CustomWeather, © 2014

See weather overviewHow to use our weather pages